User: anonymous   Login
Location: Theydon Bois
(51.6750°N, 0.1050°E)
Time: 00:58:50
(UTC+00:00)
Language:

BREEZE-M DEB (TANK) - Orbit

View from above orbital plane
View from above orbital plane
View from above satellite
View from above satellite

Ground track
Ground track

The orbit data is extracted from the following two-line orbital elements,

1 33374U 08044B   18052.38661713 +.00000433 +00000-0 +16437-3 0  9991
2 33374 049.4757 108.7233 5426000 234.3326 062.4471 04.87277375166144
Epoch (UTC): 21 February 2018 09:16:43
Eccentricity: 0.5426000
inclination: 49.4757°
perigee height: 344 km
apogee height: 16293 km
right ascension of ascending node: 108.7233°
argument of perigee: 234.3326°
revolutions per day: 4.87277375
mean anomaly at epoch: 62.4471°
orbit number at epoch: 16614

The dashed part of the orbit path shows where the satellite is in the earth's shadow,  

DLR